Location: Limerick
(52.6650°N, 8.6230°W)
Time: 06:07:06
(UTC+00:00)

ISS - Pass Details

Date: 08 December 2019
Orbit: 411 x 421 km, 51.6° (Epoch: 15 December)

Event Time Altitude Azimuth Distance (km) Brightness Sun altitude
Rises 18:57:23 0° 278° (W) 2,361 1.3 -22.5°
Reaches altitude 10° 19:00:08 10° 254° (WSW) 1,496 0.1 -22.9°
Maximum altitude 19:02:06 15° 218° (SW) 1,237 -0.9 -23.2°
Enters shadow 19:03:45 11° 187° (S) 1,422 -0.9 -23.5°
